Loisir ou Compétition : Rejoignez un Club de la Fédération

Résultats

CHALLENGE CASA ARNAUD 30 MARS 2019

AUTRANS

PT Dames

Jury de Compétition

Délégué Technique :
GALLIN LIONEL (DA)
D.T. Adjoint :
VALLET JEAN LUC (DA)
Dir. Epreuve :
HELDENBERGH NICOLAS (DA)

Caractéristiques de la Piste

Piste :
AUTRANS VILLAGE SITE COMPETITI
Distance :
2.7 km
Point Haut :
 
Point Bas :
 
Montée Tot. :
 
Montée Max. :
 
Homologation :
2016-62-1

Pénalité Appliquée :
 
Coefficient :
 

Catégorie :
U13
Style :
L
Clt Dos Clt/Cat Code An Nom Prénom Com Club Temps Ecart Points
Classés
1 141 1/U13 FFS2681492 2006 DUSSERRE ALICE DA CS VILLARD 08:52.8 00:00.0
2 142 2/U13 FFS2676157 2006 DONET FLORE DA SA MEAUDRAIS 09:08.1 00:15.3
3 147 3/U13 FFS2686334 2006 PIC CALINE DA SNB CHAMROUS 09:10.0 00:17.2
4 145 4/U13 FFS2676072 2006 BREYTON BOUVIER LIV DA SN CHARTROUS 09:27.7 00:34.9
5 143 5/U13 FFS2692290 2006 VASSAL LILI DA CS VILLARD 09:34.4 00:41.6
6 157 6/U13 FFS2674768 2006 GLEYZOLLE THAIS DA US AUTRANNAI 09:38.4 00:45.6
7 151 7/U13 FFS2681265 2006 BOEUF MAE DA SNB CHAMROUS 09:50.6 00:57.8
8 153 8/U13 FFS2673634 2006 FOURCY GIRAUD AUBAINE DA CO 7 LAUX GR 09:53.0 01:00.2
9 158 9/U13 FFS2686248 2007 DOSTATNI VICTORIA DA SA MEAUDRAIS 09:55.4 01:02.6
10 159 10/U13 FFS2669456 2006 FILLIARD SWANI DA CO 7 LAUX GR 09:56.8 01:04.0
11 155 11/U13 FFS2681595 2006 GATIE SELENE DA SN CHARTROUS 09:59.3 01:06.5
12 144 12/U13 FFS2675531 2006 CHAMPAGNAC FANTINE DA SA MEAUDRAIS 10:02.0 01:09.2
13 146 13/U13 FFS2684409 2006 MORETTI LENA DA CS VILLARD 10:04.4 01:11.6
14 149 14/U13 FFS2675532 2006 VITTOZ LOUNA DA SA MEAUDRAIS 10:05.3 01:12.5
15 173 15/U13 FFS2691388 2007 HUET BRIOT MAELYNE DA SN CHARTROUS 10:30.2 01:37.4
16 148 16/U13 FFS2674482 2006 PORRET LINA DA US AUTRANNAI 10:35.2 01:42.4
17 161 17/U13 FFS2686868 2006 BONZI ANTONELLA DA US AUTRANNAI 10:35.6 01:42.8
18 165 18/U13 FFS2681446 2007 COPPEL JUSTINE DA GUC GRENOBLE 10:39.8 01:47.0
19 183 19/U13 FFS2689915 2007 BOULEGUE ZOE DA SN CHARTROUS 10:42.6 01:49.8
20 163 20/U13 FFS2681296 2007 ZELSMANN FLORE DA SNB CHAMROUS 10:46.5 01:53.7
21 171 21/U13 FFS2687121 2006 ROBIN MANON DA US AUTRANNAI 10:49.8 01:57.0
22 154 22/U13 FFS2687726 2006 BRUEL MANON DA CS VILLARD 10:53.3 02:00.5
23 170 23/U13 FFS2677690 2006 BOURGAULT ELINE DA US AUTRANNAI 10:57.4 02:04.6
24 167 24/U13 FFS2697124 2006 MARGUERON RAPHAELLE DA GUC GRENOBLE 10:57.8 02:05.0
25 162 25/U13 FFS2676280 2006 EYSSAUTIER CYLIA DA SNB CHAMROUS 10:59.7 02:06.9
26 156 26/U13 FFS2682358 2006 BARDINET FANTINE DA SNO 11:00.0 02:07.2
27 166 27/U13 FFS2691407 2006 MIEHE NAWEL DA SNB CHAMROUS 11:00.6 02:07.8
28 160 28/U13 FFS2677877 2006 FAVARIN TIZIANA DA SA MEAUDRAIS 11:03.7 02:10.9
29 177 29/U13 FFS2692035 2006 DUPONT LOUISE DA GUC GRENOBLE 11:04.6 02:11.8
30 172 30/U13 FFS2687696 2007 DERUELLE ALICE DA CS VILLARD 11:09.2 02:16.4
31 175 31/U13 FFS2691584 2007 MOSNIER ERELL DA GUC GRENOBLE 11:10.1 02:17.3
32 168 32/U13 FFS2676288 2006 COSTE HANNA LIV DA US AUTRANNAI 11:12.8 02:20.0
33 178 33/U13 FFS2700388 2006 BREYSSE ISALINE DA ADDSN ARDECH 11:16.1 02:23.3
34 181 34/U13 FFS2693055 2006 MINELLI BARON CAPUCINE DA US AUTRANNAI 11:24.5 02:31.7
35 164 35/U13 FFS2677798 2006 COMBEAU ROMANE DA SNO 11:25.8 02:33.0
36 179 36/U13 FFS2691714 2007 MAUPOIX JULIETTE DA CO 7 LAUX GR 11:26.2 02:33.4
37 174 37/U13 FFS2696600 2006 SARRET VIOLETTE DA BOURG VAL SM 11:32.5 02:39.7
38 169 38/U13 FFS2686860 2007 JALLIFIER LISA DA VERCORS SKF 11:37.5 02:44.7
39 176 39/U13 FFS2686815 2007 LABBE LULLY DA GUC GRENOBLE 11:48.0 02:55.2
Non partants
150 FFS2677200 2006 HASENFRATZ AMELIE DA CO 7 LAUX GR
152 FFS2677876 2006 AZAMBRE MATHILDE DA US AUTRANNAI
180 FFS2697861 2006 DUSSERT ALIX DA SM AIGUILLE
182 FFS2687358 2007 BARRET MATHILDE DA SN CHARTROUS